Time,TemperatureF,DewpointF,PressureIn,WindDirection,WindDirectionDegrees,WindSpeedMPH,WindSpeedGustMPH,Humidity,HourlyPrecipIn,Conditions,Clouds,dailyrainin,SoftwareType,DateUTC
2013-03-04 00:02:00,-999.0,-99.9,-100.00,NNW,346,1.0,14.0,-999,-99.99,,,-99.99,,2013-03-04 08:02:00,
2013-03-04 00:22:00,-999.0,-99.9,-100.00,North,6,1.0,6.0,-999,-99.99,,,-99.99,,2013-03-04 08:22:00,
2013-03-04 00:32:00,-999.0,-99.9,-100.00,North,6,1.0,6.0,-999,-99.99,,,-99.99,,2013-03-04 08:32:00,
2013-03-04 00:42:00,-999.0,-99.9,-100.00,North,356,0.0,-999.0,-999,-99.99,,,-99.99,,2013-03-04 08:42:00,
2013-03-04 00:53:00,-999.0,-99.9,-100.00,North,357,0.0,5.0,-999,-99.99,,,-99.99,,2013-03-04 08:53:00,
2013-03-04 01:02:00,-999.0,-99.9,-100.00,North,357,0.0,5.0,-999,-99.99,,,-99.99,,2013-03-04 09:02:00,
2013-03-04 02:12:00,-999.0,-99.9,-100.00,NE,51,0.0,6.0,-999,-99.99,,,-99.99,,2013-03-04 10:12:00,
2013-03-04 02:22:00,-999.0,-99.9,-100.00,NE,38,0.0,-999.0,-999,-99.99,,,-99.99,,2013-03-04 10:22:00,
2013-03-04 02:32:00,-999.0,-99.9,-100.00,NE,38,0.0,-999.0,-999,-99.99,,,-99.99,,2013-03-04 10:32:00,
2013-03-04 02:42:00,-999.0,-99.9,-100.00,West,270,0.0,-999.0,-999,-99.99,,,-99.99,,2013-03-04 10:42:00,
2013-03-04 03:22:00,-999.0,-99.9,-100.00,SSE,159,0.0,0.0,-999,-99.99,,,-99.99,,2013-03-04 11:22:00,
2013-03-04 03:32:00,-999.0,-99.9,-100.00,SSE,159,0.0,0.0,-999,-99.99,,,-99.99,,2013-03-04 11:32:00,
2013-03-04 04:22:00,-999.0,-99.9,-100.00,SE,141,0.0,0.0,-999,-99.99,,,-99.99,,2013-03-04 12:22:00,
2013-03-04 04:32:00,-999.0,-99.9,-100.00,SE,141,0.0,0.0,-999,-99.99,,,-99.99,,2013-03-04 12:32:00,
2013-03-04 04:43:00,-999.0,-99.9,-100.00,WSW,246,14.0,0.0,-999,-99.99,,,-99.99,,2013-03-04 12:43:00,
2013-03-04 04:53:00,-999.0,-99.9,-100.00,WSW,238,9.0,0.0,-999,-99.99,,,-99.99,,2013-03-04 12:53:00,
2013-03-04 05:02:00,-999.0,-99.9,-100.00,WSW,238,9.0,0.0,-999,-99.99,,,-99.99,,2013-03-04 13:02:00,
2013-03-04 05:11:00,-999.0,-99.9,-100.00,WSW,239,0.0,0.0,-999,-99.99,,,-99.99,,2013-03-04 13:11:00,
2013-03-04 05:22:00,-999.0,-99.9,-100.00,WSW,254,0.0,0.0,-999,-99.99,,,-99.99,,2013-03-04 13:22:00,
2013-03-04 05:32:00,-999.0,-99.9,-100.00,WSW,254,0.0,0.0,-999,-99.99,,,-99.99,,2013-03-04 13:32:00,
2013-03-04 05:42:00,-999.0,-99.9,-100.00,SSW,209,0.0,0.0,80,-99.99,,,-99.99,,2013-03-04 13:42:00,
2013-03-04 05:52:00,-999.0,-99.9,-100.00,SSW,212,1.0,0.0,80,-99.99,,,-99.99,,2013-03-04 13:52:00,
2013-03-04 06:01:00,-999.0,-99.9,-100.00,SSW,212,1.0,0.0,80,-99.99,,,-99.99,,2013-03-04 14:01:00,
2013-03-04 06:11:00,46.0,40.0,-100.00,SSW,212,0.0,0.0,80,-99.99,,,-99.99,,2013-03-04 14:11:00,
2013-03-04 06:22:00,-999.0,-99.9,-100.00,WNW,288,0.0,0.0,-999,-99.99,,,-99.99,,2013-03-04 14:22:00,
2013-03-04 06:32:00,-999.0,-99.9,-100.00,WNW,288,0.0,0.0,-999,-99.99,,,-99.99,,2013-03-04 14:32:00,
2013-03-04 06:42:00,-999.0,-99.9,-100.00,NNE,31,0.0,0.0,-999,-99.99,,,-99.99,,2013-03-04 14:42:00,
2013-03-04 06:52:00,-999.0,-99.9,-100.00,NNE,31,0.0,0.0,-999,-99.99,,,-99.99,,2013-03-04 14:52:00,
2013-03-04 07:02:00,-999.0,-99.9,-100.00,NNE,31,0.0,0.0,-999,-99.99,,,-99.99,,2013-03-04 15:02:00,
2013-03-04 07:11:00,46.0,40.0,-100.00,NE,50,0.0,0.0,80,-99.99,,,-99.99,,2013-03-04 15:11:00,
2013-03-04 07:21:00,46.0,40.0,-100.00,North,-999,-999.0,-999.0,80,-99.99,,,-99.99,,2013-03-04 15:21:00,
2013-03-04 07:31:00,46.0,40.0,-100.00,North,-999,-999.0,-999.0,80,-99.99,,,-99.99,,2013-03-04 15:31:00,
2013-03-04 07:52:00,-999.0,-99.9,-100.00,NNE,20,0.0,0.0,-999,-99.99,,,-99.99,,2013-03-04 15:52:00,
2013-03-04 08:03:00,-999.0,-99.9,-100.00,NNE,20,0.0,0.0,-999,-99.99,,,-99.99,,2013-03-04 16:03:00,
2013-03-04 08:11:00,-999.0,-99.9,-100.00,NNE,20,0.0,0.0,80,-99.99,,,-99.99,,2013-03-04 16:11:00,
2013-03-04 08:22:00,-999.0,-99.9,-100.00,North,350,0.0,0.0,-999,-99.99,,,-99.99,,2013-03-04 16:22:00,
2013-03-04 08:32:00,-999.0,-99.9,-100.00,North,350,0.0,0.0,-999,-99.99,,,-99.99,,2013-03-04 16:32:00,
2013-03-04 08:52:00,-999.0,-99.9,-100.00,North,356,0.0,-999.0,64,-99.99,,,-99.99,,2013-03-04 16:52:00,
2013-03-04 09:02:00,-999.0,-99.9,-100.00,North,356,0.0,-999.0,64,-99.99,,,-99.99,,2013-03-04 17:02:00,
2013-03-04 09:22:00,-999.0,-99.9,-100.00,NNW,344,0.0,1.0,-999,-99.99,,,-99.99,,2013-03-04 17:22:00,
2013-03-04 09:32:00,-999.0,-99.9,-100.00,NNW,344,0.0,1.0,-999,-99.99,,,-99.99,,2013-03-04 17:32:00,
2013-03-04 09:42:00,-999.0,-99.9,-100.00,North,354,0.0,3.0,57,-99.99,,,-99.99,,2013-03-04 17:42:00,
2013-03-04 09:52:00,-999.0,-99.9,-100.00,NW,316,0.0,2.0,-999,-99.99,,,-99.99,,2013-03-04 17:52:00,
2013-03-04 10:02:00,-999.0,-99.9,-100.00,NW,316,0.0,2.0,-999,-99.99,,,-99.99,,2013-03-04 18:02:00,
2013-03-04 11:12:00,65.0,-99.9,-100.00,NNW,344,-999.0,6.0,-999,-99.99,,,-99.99,,2013-03-04 19:12:00,
2013-03-04 11:22:00,65.0,-99.9,-100.00,NNW,344,-999.0,6.0,-999,-99.99,,,-99.99,,2013-03-04 19:22:00,
2013-03-04 11:32:00,65.0,-99.9,-100.00,NNW,344,-999.0,6.0,-999,-99.99,,,-99.99,,2013-03-04 19:32:00,
2013-03-04 11:42:00,-999.0,-99.9,-100.00,NNW,342,1.0,8.0,-999,-99.99,,,-99.99,,2013-03-04 19:42:00,
2013-03-04 11:52:00,74.0,51.0,-100.00,NNW,348,-999.0,-999.0,44,-99.99,,,-99.99,,2013-03-04 19:52:00,
2013-03-04 12:01:00,74.0,51.0,-100.00,NNW,348,-999.0,-999.0,44,-99.99,,,-99.99,,2013-03-04 20:01:00,
2013-03-04 12:22:00,-999.0,-99.9,-100.00,North,10,1.0,10.0,42,-99.99,,,-99.99,,2013-03-04 20:22:00,
2013-03-04 13:21:00,70.0,45.0,-100.00,NNE,24,-999.0,10.0,40,-99.99,,,-99.99,,2013-03-04 21:21:00,
2013-03-04 13:31:00,70.0,45.0,-100.00,NNE,24,-999.0,10.0,40,-99.99,,,-99.99,,2013-03-04 21:31:00,
2013-03-04 13:43:00,-999.0,-99.9,-100.00,NNE,25,0.0,6.0,-999,-99.99,,,-99.99,,2013-03-04 21:43:00,
2013-03-04 15:12:00,-999.0,-99.9,-100.00,North,-999,0.0,69.0,35,-99.99,,,-99.99,,2013-03-04 23:12:00,
2013-03-04 17:00:00,-999.0,-99.9,-100.00,NNW,343,0.0,-999.0,-999,-99.99,,,-99.99,,2013-03-05 01:00:00,
2013-03-04 17:12:00,-999.0,-99.9,-100.00,North,-999,37.0,-999.0,-999,-99.99,,,-99.99,,2013-03-05 01:12:00,
2013-03-04 17:22:00,-999.0,-99.9,-100.00,NNW,343,0.0,-999.0,-999,-99.99,,,-99.99,,2013-03-05 01:22:00,
2013-03-04 17:33:00,-999.0,-99.9,-100.00,NNW,343,0.0,-999.0,-999,-99.99,,,-99.99,,2013-03-05 01:33:00,
2013-03-04 17:42:00,-999.0,-99.9,-100.00,NNW,343,0.0,-999.0,-999,-99.99,,,-99.99,,2013-03-05 01:42:00,
2013-03-04 17:52:00,-999.0,-99.9,-100.00,NNW,343,0.0,-999.0,-999,-99.99,,,-99.99,,2013-03-05 01:52:00,
2013-03-04 18:53:00,-999.0,-99.9,-100.00,North,-999,0.0,-999.0,-999,-99.99,,,-99.99,,2013-03-05 02:53:00,
2013-03-04 19:02:00,-999.0,-99.9,-100.00,North,-999,0.0,-999.0,-999,-99.99,,,-99.99,,2013-03-05 03:02:00,
2013-03-04 19:11:00,60.0,48.0,-100.00,North,-999,-999.0,-999.0,64,-99.99,,,-99.99,,2013-03-05 03:11:00,
2013-03-04 19:21:00,56.0,47.0,-100.00,North,-999,-999.0,-999.0,72,-99.99,,,-99.99,,2013-03-05 03:21:00,
2013-03-04 19:31:00,56.0,47.0,-100.00,North,-999,-999.0,-999.0,72,-99.99,,,-99.99,,2013-03-05 03:31:00,
2013-03-04 19:42:00,-999.0,-99.9,-100.00,SW,225,0.0,1.0,-999,-99.99,,,-99.99,,2013-03-05 03:42:00,
2013-03-04 19:52:00,-999.0,-99.9,-100.00,WSW,247,0.0,-999.0,66,-99.99,,,-99.99,,2013-03-05 03:52:00,
2013-03-04 20:02:00,-999.0,-99.9,-100.00,WSW,247,0.0,-999.0,66,-99.99,,,-99.99,,2013-03-05 04:02:00,
2013-03-04 20:42:00,-999.0,-99.9,-100.00,NNE,28,0.0,0.0,-999,-99.99,,,-99.99,,2013-03-05 04:42:00,
2013-03-04 20:52:00,55.0,47.0,-100.00,ENE,69,0.0,-999.0,73,-99.99,,,-99.99,,2013-03-05 04:52:00,
2013-03-04 21:01:00,55.0,47.0,-100.00,ENE,69,0.0,-999.0,73,-99.99,,,-99.99,,2013-03-05 05:01:00,
2013-03-04 21:42:00,-999.0,-99.9,-100.00,ENE,69,0.0,-999.0,-999,-99.99,,,-99.99,,2013-03-05 05:42:00,
2013-03-04 22:11:00,-999.0,-99.9,-100.00,North,-999,5.0,-999.0,-999,-99.99,,,-99.99,,2013-03-05 06:11:00,
2013-03-04 22:31:00,52.0,46.0,-100.00,North,-999,18.0,0.0,80,-99.99,,,-99.99,,2013-03-05 06:31:00,
2013-03-04 22:41:00,52.0,46.0,-100.00,North,-999,18.0,0.0,80,-99.99,,,-99.99,,2013-03-05 06:41:00,
2013-03-04 22:52:00,52.0,46.0,-100.00,North,-999,-999.0,-999.0,80,-99.99,,,-99.99,,2013-03-05 06:52:00,
2013-03-04 23:01:00,52.0,46.0,-100.00,North,-999,-999.0,-999.0,80,-99.99,,,-99.99,,2013-03-05 07:01:00,
2013-03-04 23:11:00,-999.0,-99.9,-100.00,ESE,108,0.0,0.0,80,-99.99,,,-99.99,,2013-03-05 07:11:00,
2013-03-04 23:22:00,-999.0,-99.9,-100.00,ESE,108,0.0,0.0,80,-99.99,,,-99.99,,2013-03-05 07:22:00,
2013-03-04 23:32:00,-999.0,-99.9,-100.00,ESE,106,0.0,-999.0,-999,-99.99,,,-99.99,,2013-03-05 07:32:00,
2013-03-04 23:42:00,-999.0,-99.9,-100.00,ESE,106,0.0,-999.0,-999,-99.99,,,-99.99,,2013-03-05 07:42:00,
2013-03-04 23:52:00,59.0,53.0,-100.00,North,-999,0.0,0.0,80,-99.99,,,-99.99,,2013-03-05 07:52:00,